Belichi, Ukraine

6:16 AM EEST on May 24, 2018 (GMT +0300)
Belichi

Weather History for 33345 - September, 2013

Change the Weather History Date:

Thursday, September 5, 2013

  Actual Average Record
Temperature  
Mean Temperature 56 °F -  
Max Temperature 61 °F - - ()
Min Temperature 51 °F - - ()
Degree Days  
Heating Degree Days 9    
Growing Degree Days 6 (Base 50)    
Moisture  
Dew Point 45 °F    
Average Humidity 68    
Maximum Humidity 94    
Minimum Humidity 35    
Precipitation  
Precipitation 0.00 in 0.06 in - ()
Sea Level Pressure  
Sea Level Pressure 29.96 in    
Wind  
Wind Speed 11 mph ()    
Max Wind Speed 18 mph    
Max Gust Speed 29 mph    
Visibility 7.1 miles    
Events Rain    
T = Trace of Precipitation, MM = Missing Value Source: Averaged Metar Reports

Daily Weather History Graph

Daily Weather History Graph

Search for Another Location

Airport or City:

Astronomy

Sep. 05, 2013 Rise Set
Actual Time 6:18 AM EEST 7:33 PM EEST
Civil Twilight 5:44 AM EEST 8:07 PM EEST
Nautical Twilight 5:03 AM EEST 8:47 PM EEST
Astronomical Twilight 4:19 AM EEST 9:31 PM EEST
Moon 6:14 AM EEST (9/5) 7:06 PM EEST (9/5)
Length of Visible Light 14h 22m
Length of Day
13h 15m
Waning Crescent, 0% of the Moon is Illuminated
Sep 5
Waning Crescent
Sep 5
New
Sep 12
First Quarter
Sep 19
Full
Sep 27
Last Quarter

Hourly Weather History & Observations

Time (EEST) Temp. Dew Point Humidity Pressure Visibility Wind Dir Wind Speed Gust Speed Precip Events Conditions
12:00 AM 54 °F 50 °F 82% 29.99 in 12 mi NNW 8.9 mph - -   Partly Cloudy
12:00 AM 53.6 °F 50.0 °F 88% 29.98 in 6.2 mi NNW 11.2 mph - N/A   Mostly Cloudy
12:30 AM 53.6 °F 50.0 °F 88% 29.98 in 6.2 mi NNW 11.2 mph - N/A   Mostly Cloudy
1:00 AM 53.6 °F 50.0 °F 88% 29.98 in 6.2 mi NNW 11.2 mph - N/A   Mostly Cloudy
1:30 AM 53.6 °F 50.0 °F 88% 29.98 in 6.2 mi NNW 8.9 mph - N/A   Mostly Cloudy
2:00 AM 53.6 °F 50.0 °F 88% 29.98 in 6.2 mi NNW 11.2 mph - N/A   Mostly Cloudy
2:30 AM 53.6 °F 50.0 °F 88% 29.98 in 6.2 mi NNW 11.2 mph - N/A   Mostly Cloudy
3:00 AM 54 °F 50 °F 82% 29.99 in 12 mi NNW 6.7 mph - -   Partly Cloudy
3:00 AM 53.6 °F 50.0 °F 88% 29.98 in 6.2 mi NNW 11.2 mph - N/A   Mostly Cloudy
3:30 AM 53.6 °F 50.0 °F 88% 29.98 in 6.2 mi NNW 11.2 mph - N/A   Mostly Cloudy
4:00 AM 53.6 °F 50.0 °F 88% 29.98 in 6.2 mi NNW 11.2 mph - N/A   Mostly Cloudy
4:30 AM 53.6 °F 50.0 °F 88% 29.98 in 6.2 mi NNW 11.2 mph - N/A   Mostly Cloudy
5:00 AM 53.6 °F 50.0 °F 88% 29.98 in 6.2 mi NNW 11.2 mph - N/A   Mostly Cloudy
5:30 AM 53.6 °F 51.8 °F 94% 29.98 in 6.2 mi NNW 8.9 mph - N/A   Overcast
6:00 AM 53.6 °F 50.0 °F 88% 29.98 in 6.2 mi NNW 11.2 mph - N/A   Mostly Cloudy
6:30 AM 51.8 °F 50.0 °F 94% 29.98 in 6.2 mi NNW 11.2 mph - N/A   Mostly Cloudy
7:00 AM 51.8 °F 50.0 °F 94% 29.98 in 6.2 mi NNW 13.4 mph - N/A   Mostly Cloudy
7:30 AM 53.6 °F 50.0 °F 88% 29.98 in 6.2 mi NNW 11.2 mph - N/A   Mostly Cloudy
8:00 AM 53.6 °F 50.0 °F 88% 29.98 in 6.2 mi NNW 15.7 mph - N/A   Mostly Cloudy
8:30 AM 53.6 °F 50.0 °F 88% 29.98 in 6.2 mi NNW 15.7 mph - N/A   Mostly Cloudy
9:00 AM 54 °F 47 °F 72% 29.98 in 12 mi NNW 8.9 mph - -   Mostly Cloudy
9:00 AM 53.6 °F 48.2 °F 82% 29.98 in 6.2 mi NNW 11.2 mph - N/A   Mostly Cloudy
9:30 AM 53.6 °F 48.2 °F 82% 29.98 in 6.2 mi NNW 13.4 mph - N/A   Mostly Cloudy
10:00 AM 55.4 °F 46.4 °F 72% 29.98 in 6.2 mi NNW 13.4 mph - N/A   Scattered Clouds
10:30 AM 55.4 °F 44.6 °F 67% 29.98 in 6.2 mi NNW 13.4 mph - N/A   Mostly Cloudy
10:39 AM 57.2 °F 42.8 °F 59% 29.98 in 6.2 mi NNW 15.7 mph 26.8 mph N/A   Mostly Cloudy
11:00 AM 57.2 °F 42.8 °F 59% 29.95 in 6.2 mi North 17.9 mph 29.1 mph N/A   Mostly Cloudy
11:30 AM 57.2 °F 41.0 °F 55% 29.95 in 6.2 mi North 15.7 mph 26.8 mph N/A   Mostly Cloudy
12:00 PM 58 °F 42 °F 44% 29.96 in 12 mi North 15.7 mph - -   Mostly Cloudy
12:00 PM 57.2 °F 42.8 °F 59% 29.95 in 6.2 mi North 17.9 mph - N/A   Mostly Cloudy
12:30 PM 59.0 °F 42.8 °F 55% 29.95 in 6.2 mi North 13.4 mph - N/A   Mostly Cloudy
1:00 PM 59.0 °F 41.0 °F 51% 29.95 in 6.2 mi North 15.7 mph - N/A   Mostly Cloudy
1:30 PM 60.8 °F 42.8 °F 52% 29.95 in 6.2 mi North 15.7 mph - N/A   Mostly Cloudy
2:00 PM 60.8 °F 42.8 °F 52% 29.95 in 6.2 mi North 15.7 mph - N/A   Mostly Cloudy
2:30 PM 60.8 °F 41.0 °F 48% 29.95 in 6.2 mi North 15.7 mph - N/A   Mostly Cloudy
3:00 PM 60 °F 40 °F 35% 29.93 in 12 mi North 11.2 mph - -   Mostly Cloudy
3:00 PM 60.8 °F 42.8 °F 52% 29.92 in 6.2 mi North 17.9 mph - N/A   Mostly Cloudy
3:30 PM 60.8 °F 41.0 °F 48% 29.92 in 6.2 mi North 15.7 mph - N/A   Mostly Cloudy
3:45 PM 62.6 °F 41.0 °F 45% 29.92 in - NNW 17.9 mph 29.1 mph N/A   Clear
4:00 PM 60.8 °F 41.0 °F 48% 29.92 in - NNW 15.7 mph - N/A   Clear
4:30 PM 60.8 °F 41.0 °F 48% 29.92 in - North 15.7 mph - N/A   Clear
5:00 PM 60.8 °F 42.8 °F 52% 29.92 in - NNW 13.4 mph - N/A   Clear
5:30 PM 60.8 °F 42.8 °F 52% 29.92 in - NNW 13.4 mph - N/A   Clear
6:00 PM 60 °F 40 °F 37% 29.93 in 12 mi North 8.9 mph - -   Mostly Cloudy
6:00 PM 60.8 °F 42.8 °F 52% 29.92 in - North 15.7 mph - N/A   Clear
6:30 PM 60.8 °F 42.8 °F 52% 29.92 in - NNW 11.2 mph - N/A   Clear
7:00 PM 60.8 °F 42.8 °F 52% 29.92 in - NNW 11.2 mph - N/A   Clear
7:30 PM 59.0 °F 41.0 °F 51% 29.92 in - North 8.9 mph - N/A   Clear
8:00 PM 59.0 °F 41.0 °F 51% 29.95 in - NNW 8.9 mph - N/A   Clear
8:30 PM 59.0 °F 41.0 °F 51% 29.95 in - North 8.9 mph - N/A   Clear
9:00 PM 58 °F 42 °F 44% 29.94 in 12 mi North 8.9 mph - -   Mostly Cloudy
9:00 PM 57.2 °F 41.0 °F 55% 29.95 in - NNW 11.2 mph - N/A   Clear
9:30 PM 57.2 °F 42.8 °F 59% 29.95 in 6.2 mi NNE 8.9 mph - N/A   Mostly Cloudy
10:00 PM 53.6 °F 44.6 °F 72% 29.95 in 6.2 mi NE 8.9 mph - N/A   Mostly Cloudy
10:30 PM 53.6 °F 46.4 °F 77% 29.95 in 6.2 mi NE 8.9 mph - N/A Rain Light Rain
11:00 PM 51.8 °F 46.4 °F 82% 29.95 in 6.2 mi NNE 8.9 mph - N/A   Overcast
11:30 PM 51.8 °F 46.4 °F 82% 29.95 in 6.2 mi NNE 6.7 mph - N/A   Mostly Cloudy